Mitchell, SD

5:58 PM CST on November 18, 2019 (GMT -0600)
Mitchell Municipal

Weather History for KMHE - September, 2019

Change the Weather History Date:

Sunday, September 29, 2019

  Actual Average Record
Temperature  
Mean Temperature 65 °F 57 °F  
Max Temperature 76 °F 70 °F 92 °F (1897)
Min Temperature 54 °F 43 °F 11 °F (1899)
Degree Days  
Heating Degree Days 0 9  
Month to date heating degree days 39 132  
Since 1 July heating degree days 48 149  
Cooling Degree Days 0 1  
Month to date cooling degree days 142 72  
Year to date cooling degree days 936 817  
Growing Degree Days 14 (Base 50)    
Moisture  
Dew Point 59 °F    
Average Humidity 83    
Maximum Humidity 97    
Minimum Humidity 68    
Precipitation  
Precipitation T in 0.08 in 0.53 in (2007)
Month to date precipitation 7.63 2.25  
Year to date precipitation 32.67 18.60  
Snow  
Snow 0.00 in - 0.00 in (2002)
Month to date snowfall 0.0  
Since 1 July snowfall 0.0  
Since 1 September snowfall 0.0  
Snow Depth 0.00 in    
Sea Level Pressure  
Sea Level Pressure 29.84 in    
Wind  
Wind Speed 20 mph (SE)    
Max Wind Speed 30 mph    
Max Gust Speed 42 mph    
Visibility 8 miles    
Events Rain    
T = Trace of Precipitation, MM = Missing Value Source: NWS Daily Summary

Daily Weather History Graph

Daily Weather History Graph

Search for Another Location

Airport or City:

Astronomy

Sep. 29, 2019 Rise Set
Actual Time 7:27 AM CDT 7:17 PM CDT
Civil Twilight 6:58 AM CDT 7:45 PM CDT
Nautical Twilight 6:25 AM CDT 8:18 PM CDT
Astronomical Twilight 5:51 AM CDT 8:52 PM CDT
Moon 8:19 AM CDT (9/29) 8:16 PM CDT (9/29)
Length of Visible Light 12h 47m
Length of Day
11h 49m
New Moon, 1% of the Moon is Illuminated
Sep 29
New Moon
Oct 5
First Quarter
Oct 13
Full
Oct 21
Last Quarter
Oct 27
New

Hourly Weather History & Observations

Time (CDT) Temp. Dew Point Humidity Pressure Visibility Wind Dir Wind Speed Gust Speed Precip Events Conditions
12:32 AM 54.0 °F 46.9 °F 77% 30.01 in 10.0 mi East 13.8 mph - N/A   Overcast
12:53 AM 54.0 °F 48.0 °F 80% 30.02 in 10.0 mi ESE 17.3 mph - N/A   Overcast
1:53 AM 55.0 °F 48.9 °F 80% 30.00 in 10.0 mi East 10.4 mph - N/A   Overcast
2:48 AM 55.4 °F 51.8 °F 88% 29.98 in 10.0 mi ESE 12.7 mph - N/A   Overcast
2:53 AM 55.9 °F 51.1 °F 84% 29.98 in 10.0 mi ESE 12.7 mph - N/A   Overcast
3:42 AM 55.9 °F 52.0 °F 87% 29.96 in 10.0 mi ESE 13.8 mph - N/A   Overcast
3:53 AM 55.9 °F 52.0 °F 87% 29.96 in 10.0 mi ESE 13.8 mph - N/A   Overcast
4:53 AM 55.9 °F 53.1 °F 90% 29.94 in 6.0 mi ESE 15.0 mph - N/A   Overcast
5:53 AM 57.0 °F 55.0 °F 93% 29.92 in 4.0 mi ESE 17.3 mph - N/A   Overcast
6:24 AM 57.0 °F 55.0 °F 93% 29.91 in 8.0 mi ESE 16.1 mph 24.2 mph N/A   Overcast
6:53 AM 57.0 °F 55.0 °F 93% 29.91 in 9.0 mi ESE 13.8 mph - N/A   Overcast
7:53 AM 57.9 °F 55.9 °F 93% 29.90 in 4.0 mi ESE 18.4 mph 28.8 mph N/A   Overcast
8:53 AM 59.0 °F 57.0 °F 93% 29.89 in 5.0 mi ESE 19.6 mph 31.1 mph N/A   Overcast
9:53 AM 61.0 °F 57.9 °F 90% 29.88 in 10.0 mi SE 20.7 mph 31.1 mph N/A   Overcast
10:09 AM 61.0 °F 57.9 °F 90% 29.87 in 10.0 mi SE 21.9 mph 29.9 mph N/A   Overcast
10:34 AM 61.0 °F 59.0 °F 93% 29.86 in 2.0 mi SE 18.4 mph 31.1 mph N/A   Overcast
10:49 AM 60.8 °F 59.0 °F 94% 29.86 in 3.0 mi SE 19.6 mph 33.4 mph N/A   Overcast
10:53 AM 61.0 °F 59.0 °F 93% 29.86 in 3.0 mi SE 17.3 mph 29.9 mph N/A   Overcast
11:01 AM 61.0 °F 59.0 °F 93% 29.86 in 2.0 mi SE 20.7 mph 29.9 mph N/A   Overcast
11:04 AM 61.0 °F 59.0 °F 93% 29.86 in 1.8 mi SE 19.6 mph 29.9 mph N/A   Overcast
11:26 AM 62.1 °F 59.0 °F 90% 29.85 in 3.0 mi SE 20.7 mph 29.9 mph 0.00 in Rain Light Rain
11:33 AM 62.1 °F 60.1 °F 93% 29.85 in 2.5 mi SE 21.9 mph 29.9 mph 0.00 in   Overcast
11:53 AM 63.0 °F 60.1 °F 90% 29.83 in 2.5 mi SE 20.7 mph 29.9 mph 0.00 in   Overcast
12:02 PM 63.0 °F 60.1 °F 90% 29.83 in 5.0 mi SE 17.3 mph 29.9 mph N/A   Overcast
12:53 PM 64.9 °F 61.0 °F 87% 29.81 in 10.0 mi SE 20.7 mph 29.9 mph N/A   Overcast
1:32 PM 68.0 °F 62.1 °F 81% 29.79 in 10.0 mi SE 18.4 mph 32.2 mph N/A   Overcast
1:53 PM 72.0 °F 63.0 °F 73% 29.78 in 10.0 mi SE 20.7 mph 33.4 mph N/A   Overcast
2:03 PM 72.0 °F 63.0 °F 73% 29.78 in 10.0 mi SE 20.7 mph 34.5 mph N/A   Overcast
2:53 PM 73.0 °F 63.0 °F 71% 29.74 in 10.0 mi SE 28.8 mph 40.3 mph N/A   Overcast
3:53 PM 75.0 °F 64.0 °F 69% 29.71 in 10.0 mi SSE 24.2 mph 38.0 mph N/A   Partly Cloudy
4:15 PM 73.0 °F 64.0 °F 73% 29.72 in 10.0 mi SE 20.7 mph 34.5 mph N/A   Mostly Cloudy
4:53 PM 73.0 °F 64.9 °F 76% 29.72 in 10.0 mi SSE 20.7 mph 29.9 mph N/A   Overcast
5:53 PM 72.0 °F 64.9 °F 78% 29.70 in 10.0 mi SE 20.7 mph 27.6 mph N/A   Overcast
6:53 PM 73.0 °F 64.9 °F 76% 29.70 in 10.0 mi SSE 21.9 mph 35.7 mph N/A   Overcast
7:53 PM 72.0 °F 64.0 °F 76% 29.70 in 10.0 mi SE 19.6 mph 27.6 mph N/A   Overcast
8:53 PM 72.0 °F 64.9 °F 78% 29.70 in 10.0 mi SE 19.6 mph 29.9 mph N/A   Overcast
9:53 PM 73.0 °F 66.0 °F 79% 29.68 in 10.0 mi SSE 21.9 mph 34.5 mph N/A   Scattered Clouds
10:53 PM 73.0 °F 66.9 °F 81% 29.66 in 10.0 mi SSE 23.0 mph 33.4 mph N/A   Clear
11:53 PM 73.0 °F 68.0 °F 84% 29.64 in 10.0 mi SSE 24.2 mph 34.5 mph N/A   Clear